Hourly Data Report for October 16, 2013

All times are specified in Local Standard Time (LST). Add 1 hour to adjust for Daylight Saving Time where and when it is observed.

HALL BEACH A
NUNAVUT

68°46'33.000" N
81°14'33.000" W
9.10 m
2402354
71293
YUX

Download Data

Hourly Data (October 2013)
Hourly Data Report for October 16, 2013
Temp Definition
°C
Dew Point Temp Definition
°C
Rel Hum Definition
%
Wind Dir Definition
10's deg

Wind Spd Definition
km/h
Visibility Definition
km
Stn Press Definition
kPa
Hmdx Definition


Wind Chill Definition


Weather Definition


TIME
00:00 Legend Double Dagger -1.0 -1.3 98 14 22 9.7 99.91   -7 LegendNANA
01:00 Legend Double Dagger -1.1 -1.4 98 13 21 6.4 99.90   -7 LegendNANA
02:00 Legend Double Dagger -1.2 -1.5 98 14 21 9.7 99.89   -7 LegendNANA
03:00 Legend Double Dagger -1.8 -2.1 98 14 18 2.0 99.88   -7 LegendNANA
04:00 Legend Double Dagger -1.7 -2.0 98 16 15 4.8 99.90   -7 LegendNANA
05:00 Legend Double Dagger -1.2 -1.5 98 17 18 2.0 99.91   -6 LegendNANA
06:00 Legend Double Dagger -1.4 -1.7 98 18 21 4.0 99.95   -7 LegendNANA
07:00 Legend Double Dagger -1.6 -1.9 98 17 21 6.4 99.99   -7 LegendNANA
08:00 Legend Double Dagger -1.5 -1.8 98 16 17 4.8 100.02   -7 LegendNANA
09:00 Legend Double Dagger -1.4 -1.7 98 17 21 16.1 100.05   -7 LegendNANA
10:00 Legend Double Dagger -1.4 -1.7 98 18 21 16.1 100.09   -7 LegendNANA
11:00
12:00 Legend Double Dagger -1.0 -1.6 96 19 22 16.1 100.17   -7 LegendNANA
13:00 Legend Double Dagger -1.0 -1.6 96 18 28 16.1 100.20   -8 LegendNANA
14:00 Legend Double Dagger -1.0 -1.6 96 18 24 11.3 100.23   -7 LegendNANA
15:00 Legend Double Dagger -1.0 -1.5 96 18 17 4.8 100.26   -6 LegendNANA
16:00
17:00 Legend Double Dagger -1.1 -1.4 98 16 15 3.2 100.28   -6 LegendNANA
18:00
19:00 Legend Double Dagger -1.1 -1.4 98 17 18 12.9 100.31   -6 LegendNANA
20:00 Legend Double Dagger -1.8 -2.2 97 17 21 16.1 100.33   -8 LegendNANA
21:00 Legend Double Dagger -1.9 -2.4 96 17 21 16.1 100.33   -8 LegendNANA
22:00 Legend Double Dagger -1.4 -2.0 96 18 22 16.1 100.34   -7 LegendNANA
23:00 Legend Double Dagger -1.5 -2.2 95 18 21 16.1 100.35   -7 LegendNANA

Notes on Data Quality.

Legend

  • E = Estimated
  • M = Missing
  • NA = Not Available
  • ‡ = Partner data that is not subject to review by the National Climate Archives
Date modified: